Date String (YYYY-MM-DD hh:mm:ss) UTC,Instrument flags,Ambient pressure (hPa),Sample flow (lpm),Bypass flow (lpm),Sample temperature (°C),Ambient temperature (°C),ASC tube jacket temperature (°C),LED temperature (°C),Box temperature (°C),Sample RH (%),Span deviation,Mass concentration (μg/m³),Mass concentration (μg/m³),Mass concentration (μg/m³)
DateTimeUTC,F1_M11,P_M11,Q1_M11,Q2_M11,T1_M11,T2_M11,T3_M11,T4_M11,T5_M11,U1_M11,ZSPAN_M11,X0_M11,X2_M11,X1_M11
2021-12-01 09:00:00,,0826.6,5.02,0.00,26.3,25.5,00.0,35.2,28.1,09.7,0000.0,0006.09,0001.29,0000.69
2021-12-01 09:01:00,,0826.6,4.99,0.00,26.3,25.5,00.0,35.2,28.1,09.9,0000.0,0006.62,0001.50,0000.77
2021-12-01 09:02:00,,0826.5,5.00,0.00,26.3,25.5,00.0,35.2,28.1,09.6,0000.0,0006.94,0001.59,0000.79
2021-12-01 09:03:00,,0826.6,5.01,0.00,26.3,25.5,00.0,35.2,28.1,10.0,0000.0,0007.51,0001.69,0000.83
2021-12-01 09:04:00,,0826.6,5.00,0.00,26.3,25.5,00.0,35.2,28.1,09.7,0000.0,0006.45,0001.56,0000.78
2021-12-01 09:05:00,,0826.6,4.99,0.00,26.3,25.5,00.0,35.3,28.1,09.6,0000.0,0005.63,0001.45,0000.70
2021-12-01 09:06:00,,0826.6,5.01,0.00,26.3,25.5,00.0,35.3,28.1,09.6,0000.0,0005.03,0001.47,0000.67
2021-12-01 09:07:00,,0826.6,4.99,0.00,26.3,25.5,00.0,35.3,28.1,09.5,0000.0,0004.49,0001.44,0000.65
2021-12-01 09:08:00,,0826.7,5.01,0.00,26.3,25.4,00.0,35.3,28.1,09.5,0000.0,0004.53,0001.45,0000.65
2021-12-01 09:09:00,,0826.6,4.99,0.00,26.3,25.4,00.0,35.3,28.1,09.6,0000.0,0004.52,0001.44,0000.64
2021-12-01 09:10:00,,0826.7,5.00,0.00,26.3,25.4,00.0,35.3,28.1,09.6,0000.0,0004.41,0001.42,0000.65
2021-12-01 09:11:00,,0826.7,5.01,0.00,26.3,25.5,00.0,35.3,28.1,09.7,0000.0,0004.41,0001.41,0000.64
2021-12-01 09:12:00,,0826.7,4.98,0.00,26.3,25.5,00.0,35.3,28.1,10.7,0000.0,0005.21,0001.43,0000.67
2021-12-01 09:13:00,,0826.8,4.99,0.00,26.3,25.5,00.0,35.3,28.1,11.4,0000.0,0006.88,0001.85,0000.92
2021-12-01 09:14:00,,0826.8,5.00,0.00,26.3,25.4,00.0,35.3,28.1,11.0,0000.0,0007.81,0002.29,0001.15
2021-12-01 09:15:00,,0826.7,5.00,0.00,26.3,25.4,00.0,35.3,28.1,10.4,0000.0,0007.84,0002.38,0001.21
2021-12-01 09:16:00,,0826.7,5.00,0.00,26.3,25.4,00.0,35.3,28.2,10.3,0000.0,0008.18,0002.56,0001.30
2021-12-01 09:17:00,,0826.8,5.00,0.00,26.3,25.4,00.0,35.3,28.2,10.5,0000.0,0008.35,0002.71,0001.42
2021-12-01 09:18:00,,0826.8,5.00,0.00,26.3,25.4,00.0,35.3,28.1,10.7,0000.0,0008.78,0003.00,0001.59
2021-12-01 09:19:00,,0826.8,5.01,0.00,26.3,25.5,00.0,35.3,28.1,10.5,0000.0,0009.27,0003.20,0001.73
2021-12-01 09:20:00,,0826.8,4.99,0.00,26.3,25.5,00.0,35.3,28.2,10.9,0000.0,0009.84,0003.37,0001.92
2021-12-01 09:21:00,,0827.0,5.01,0.00,26.3,25.5,00.0,35.3,28.2,10.2,0000.0,0010.41,0003.50,0002.03
2021-12-01 09:22:00,,0827.2,4.98,0.00,26.3,25.5,00.0,35.3,28.2,10.5,0000.0,0011.06,0003.62,0002.13
2021-12-01 09:23:00,,0826.8,5.01,0.00,26.3,25.5,00.0,35.3,28.1,10.2,0000.0,0010.74,0003.59,0002.13
2021-12-01 09:24:00,,0826.9,5.01,0.00,26.4,25.5,00.0,35.3,28.2,10.2,0000.0,0009.93,0003.42,0001.91
2021-12-01 09:25:00,,0826.9,4.98,0.00,26.4,25.5,00.0,35.3,28.2,10.5,0000.0,0009.03,0003.28,0001.80
2021-12-01 09:26:00,,0826.9,5.01,0.00,26.4,25.5,00.0,35.3,28.2,10.3,0000.0,0008.99,0003.27,0001.76
2021-12-01 09:27:00,,0827.1,4.99,0.00,26.4,25.5,00.0,35.3,28.2,10.5,0000.0,0008.85,0003.29,0001.78
2021-12-01 09:28:00,,0827.1,5.00,0.00,26.4,25.5,00.0,35.3,28.2,11.2,0000.0,0009.04,0003.39,0001.87
2021-12-01 09:29:00,,0827.0,5.01,0.00,26.4,25.5,00.0,35.3,28.2,11.3,0000.0,0009.90,0003.54,0001.97
2021-12-01 09:30:00,,0827.0,4.98,0.00,26.4,25.5,00.0,35.3,28.2,11.3,0000.0,0010.21,0003.70,0002.10
2021-12-01 09:31:00,,0827.1,5.00,0.00,26.4,25.5,00.0,35.3,28.2,11.1,0000.0,0010.56,0003.79,0002.18
2021-12-01 09:32:00,,0827.1,5.01,0.00,26.4,25.5,00.0,35.3,28.2,11.3,0000.0,0010.93,0003.93,0002.31
2021-12-01 09:33:00,,0826.9,4.99,0.00,26.4,25.5,00.0,35.3,28.2,11.6,0000.0,0011.66,0004.14,0002.55
2021-12-01 09:34:00,,0826.9,5.01,0.00,26.4,25.5,00.0,35.3,28.2,11.6,0000.0,0012.43,0004.34,0002.78
2021-12-01 09:35:00,,0826.8,5.01,0.00,26.4,25.5,00.0,35.3,28.2,10.9,0000.0,0012.94,0004.45,0002.97
2021-12-01 09:36:00,,0826.9,4.98,0.00,26.4,25.5,00.0,35.3,28.2,10.7,0000.0,0012.90,0004.45,0002.99
2021-12-01 09:37:00,,0826.9,5.01,0.00,26.4,25.5,00.0,35.3,28.2,10.7,0000.0,0012.90,0004.45,0003.04
2021-12-01 09:38:00,,0826.9,4.99,0.00,26.4,25.5,00.0,35.3,28.2,10.9,0000.0,0013.77,0004.50,0003.11
2021-12-01 09:39:00,,0826.9,5.01,0.00,26.4,25.5,00.0,35.3,28.2,10.7,0000.0,0014.17,0004.51,0003.10
2021-12-01 09:40:00,,0827.1,4.98,0.00,26.4,25.5,00.0,35.3,28.2,10.6,0000.0,0013.27,0004.33,0002.98
2021-12-01 09:41:00,,0827.0,5.01,0.00,26.4,25.5,00.0,35.3,28.2,11.3,0000.0,0012.72,0004.24,0002.93
2021-12-01 09:42:00,,0826.9,5.00,0.00,26.4,25.5,00.0,35.4,28.2,11.2,0000.0,0013.37,0004.32,0002.97
2021-12-01 09:43:00,,0827.0,4.99,0.00,26.4,25.5,00.0,35.4,28.2,11.1,0000.0,0013.11,0004.33,0002.96
2021-12-01 09:44:00,,0827.1,5.00,0.00,26.4,25.5,00.0,35.4,28.2,10.4,0000.0,0012.53,0004.18,0002.83
2021-12-01 09:45:00,,0827.5,5.01,0.00,26.4,25.5,00.0,35.4,28.2,09.9,0000.0,0011.28,0003.89,0002.52
2021-12-01 09:46:00,,0827.2,4.99,0.00,26.4,25.5,00.0,35.3,28.2,10.3,0000.0,0010.61,0003.77,0002.33
2021-12-01 09:47:00,,0826.9,5.00,0.00,26.4,25.5,00.0,35.3,28.2,10.4,0000.0,0011.45,0003.77,0002.30
2021-12-01 09:48:00,,0826.9,5.00,0.00,26.4,25.5,00.0,35.3,28.2,10.0,0000.0,0011.74,0003.76,0002.24
2021-12-01 09:49:00,,0827.2,5.01,0.00,26.4,25.5,00.0,35.3,28.2,10.1,0000.0,0010.94,0003.64,0002.13
2021-12-01 09:50:00,,0827.2,4.98,0.00,26.4,25.5,00.0,35.4,28.2,10.5,0000.0,0010.62,0003.56,0002.07
2021-12-01 09:51:00,,0827.2,5.00,0.00,26.4,25.5,00.0,35.4,28.2,10.4,0000.0,0011.06,0003.62,0002.07
2021-12-01 09:52:00,,0826.9,5.01,0.00,26.4,25.5,00.0,35.3,28.2,10.2,0000.0,0011.16,0003.48,0001.93
2021-12-01 09:53:00,,0827.0,4.99,0.00,26.4,25.5,00.0,35.3,28.2,10.7,0000.0,0010.06,0003.25,0001.77
2021-12-01 09:54:00,,0827.0,5.00,0.00,26.4,25.5,00.0,35.3,28.2,11.1,0000.0,0009.74,0003.19,0001.77
2021-12-01 09:55:00,,0826.9,5.01,0.00,26.4,25.5,00.0,35.3,28.2,11.1,0000.0,0009.60,0003.26,0001.88
2021-12-01 09:56:00,,0827.1,5.00,0.00,26.4,25.5,00.0,35.3,28.2,10.9,0000.0,0010.47,0003.47,0002.06
2021-12-01 09:57:00,,0827.2,5.00,0.00,26.4,25.5,00.0,35.3,28.2,11.1,0000.0,0011.61,0003.61,0002.24
2021-12-01 09:58:00,,0827.3,5.01,0.00,26.4,25.5,00.0,35.3,28.2,11.2,0000.0,0011.46,0003.74,0002.39
2021-12-01 09:59:00,,0827.3,5.00,0.00,26.4,25.5,00.0,35.3,28.1,11.2,0000.0,0011.43,0003.89,0002.61
